Wind_Speed
23 33 15 25 23 30 24 17 11 10 7 6 5 5 5 6 8 7 6 3 3 4 7 8 7 2 6 4 6 9 13 10 9 12 12 8 7 9 10 4 3 8 3 3
31 18 24 24 22 21 16 14 9 10 9 6 7 8 7 8 8 9 8 2 3 3 6 4 6 4 6 5 8 8 11 7 2 4 9 9 7 8 10 8 6 7 3 2
30 22 29 21 24 24 19 12 8 11 10 7 9 8 9 9 8 9 8 4 6 5 5 7 7 3 3 1 4 6 5 8 8 4 5 6 5 4 7 4 7 9 8 11
18 22 28 24 28 23 15 12 7 5 6 9 9 9 9 10 9 6 8 4 8 4 2 6 8 5 5 2 3 4 6 6 7 4 5 6 8 5 6 10 12 8 12 12
7 19 21 34 30 19 14 10 5 5 4 6 9 10 10 10 9 9 8 5 7 7 3 5 4 6 4 2 2 2 6 7 6 10 9 7 6 4 3 7 9 14 15 13
15 14 18 35 27 15 9 8 5 2 4 7 8 9 11 12 10 9 10 6 5 9 6 3 4 4 5 3 4 4 4 3 6 4 5 6 6 5 1 3 5 7 11 12
17 19 21 24 25 16 10 10 6 2 3 5 8 10 11 12 11 10 11 7 6 9 8 7 7 11 10 8 6 3 5 7 5 3 3 3 4 6 5 2 2 6 5 7
15 13 20 33 22 18 12 11 7 3 2 5 9 12 14 14 14 14 13 10 9 9 9 7 4 3 5 7 6 5 7 6 4 2 5 6 6 3 1 0 2 9 6 3
10 10 19 26 30 17 12 12 8 4 1 6 8 12 13 14 16 15 14 12 12 11 9 4 2 1 2 0 1 4 7 7 5 4 3 2 2 3 3 3 3 2 2 8
13 13 11 27 32 22 16 12 9 5 2 3 7 11 12 17 17 17 15 13 13 13 8 7 4 4 4 3 2 1 2 3 5 5 3 4 1 2 3 3 1 3 6 7
16 13 18 34 30 22 16 12 9 7 3 3 8 11 13 15 15 17 15 14 14 13 10 7 5 5 6 5 4 2 2 2 2 2 3 2 1 3 3 2 4 5 7 8
18 18 18 33 25 20 17 13 10 7 4 3 7 13 16 17 16 14 14 8 13 9 9 7 6 7 8 8 5 5 4 3 3 1 2 3 2 3 3 4 4 3 3 4
20 18 17 35 23 22 17 15 11 7 6 5 8 13 16 16 16 13 15 8 12 8 8 6 6 5 10 8 7 8 6 5 4 4 5 3 2 3 5 5 2 4 2 2
21 20 23 41 29 20 17 18 14 12 6 4 10 12 15 15 14 13 12 10 9 8 7 7 5 5 9 10 7 11 9 8 8 7 6 7 5 4 5 6 5 7 7 8
21 22 22 41 24 20 20 20 19 13 7 4 10 12 14 14 14 12 11 10 9 9 10 8 9 9 7 13 12 13 13 11 11 7 9 6 6 7 8 9 8 9 10 11
23 26 28 45 26 22 22 20 21 16 9 6 10 10 13 13 13 13 11 10 9 9 9 8 9 9 9 6 11 12 12 12 11 11 10 10 11 12 12 12 12 11 9 10
25 29 30 43 33 22 23 19 20 16 13 11 7 9 13 13 13 12 11 10 9 8 8 8 8 8 10 11 12 7 12 14 15 14 14 14 15 14 14 14 14 12 13 14
25 32 28 43 39 25 23 19 14 19 16 14 6 7 16 15 13 12 12 11 11 11 9 8 9 10 11 7 6 7 7 9 8 10 16 17 18 18 16 15 18 20 19 19
31 32 31 43 40 28 25 17 11 18 21 10 9 11 13 18 14 13 11 10 12 11 14 14 9 12 9 8 8 7 7 7 8 8 9 12 14 16 18 19 19 20 21 21
35 35 40 47 45 31 27 18 8 14 24 21 13 15 14 13 19 14 8 8 11 6 12 11 16 21 14 11 10 9 8 8 8 8 10 11 13 14 16 19 22 25 27 28
39 41 46 45 44 34 20 13 11 12 14 20 26 18 15 15 15 15 10 5 5 5 7 10 6 12 14 14 12 10 10 10 11 13 15 16 18 20 21 22 24 26 27 28
44 46 44 37 33 15 15 13 14 12 18 12 21 26 24 18 17 12 9 7 5 4 7 7 6 12 11 11 9 9 10 12 13 16 19 20 22 23 24 25 27 30 30 31
47 40 45 32 23 19 16 25 21 23 13 23 22 23 29 22 19 12 7 6 7 6 7 6 10 10 14 9 7 8 10 12 15 17 20 24 27 30 34 34 33 32 31 33
53 35 32 24 17 20 19 31 31 26 21 11 19 20 24 22 19 8 7 9 6 7 7 7 7 14 13 7 7 9 12 14 17 21 25 28 31 33 34 34 35 34 32 31
44 21 22 30 25 15 28 24 30 29 20 14 19 23 15 21 9 11 8 7 7 7 6 7 11 11 8 8 9 12 15 18 21 25 27 29 32 35 35 35 36 35 33 32
30 15 20 31 24 22 29 27 27 29 21 23 22 21 9 12 8 10 10 6 7 5 8 8 5 6 8 10 13 15 19 21 23 25 27 29 32 35 36 35 35 34 32 29
25 26 20 30 29 23 24 29 26 27 26 25 18 14 11 8 9 10 10 12 8 7 6 5 7 8 11 14 16 19 21 22 24 25 27 30 33 35 35 34 32 29 27 27
Wind_Direction
235 202 217 219 204 176 200 210 210 217 212 189 179 171 166 158 159 146 132 120 84 37 11 6 29 111 82 74 41 24 29 28 46 74 84 88 69 42 34 38 31 63 59 14
204 187 209 192 175 186 200 207 210 204 200 189 179 166 153 166 161 163 153 143 131 83 36 359 50 80 89 67 34 33 36 24 352 106 81 68 60 54 47 67 92 44 74 335
213 191 193 200 181 198 195 198 203 205 201 194 175 178 161 163 161 165 162 157 132 126 72 41 34 83 116 87 31 26 37 50 57 107 75 43 42 78 54 54 96 98 65 71
226 183 180 211 178 196 196 203 206 184 201 198 176 178 176 175 169 156 147 155 145 125 101 62 35 34 110 115 39 36 35 44 41 67 97 73 53 62 49 72 89 90 86 72
194 184 205 173 185 196 193 203 193 190 200 168 183 184 181 181 172 156 159 162 144 116 125 97 57 42 99 115 182 49 35 20 58 67 103 98 95 57 32 63 86 102 102 92
210 218 232 180 176 179 182 196 196 205 178 168 181 186 182 174 170 152 145 167 147 132 147 120 86 52 73 106 112 86 36 43 103 62 104 109 73 9 263 43 123 123 104 92
227 239 241 203 171 185 196 201 188 210 183 168 180 181 177 176 171 167 153 157 158 146 138 110 91 84 88 96 97 78 75 74 47 76 151 60 66 41 133 29 348 174 121 86
215 229 214 179 170 177 189 199 167 186 204 183 191 180 182 176 170 164 159 160 160 153 143 125 108 74 74 83 65 40 67 82 96 96 57 113 53 57 137 134 61 193 165 153
215 234 241 225 180 182 190 194 155 179 217 188 195 185 179 180 175 169 167 163 170 165 158 170 183 137 178 119 86 41 53 60 77 76 88 94 27 359 234 232 313 139 249 210
219 231 246 201 181 200 192 179 160 164 192 188 189 182 184 173 175 178 174 170 175 181 189 176 201 187 178 192 156 128 108 72 85 105 107 116 129 126 166 170 193 261 286 267
216 214 224 195 183 185 177 164 158 167 177 169 179 172 176 172 171 175 179 176 193 188 194 204 207 196 191 188 172 169 165 155 124 125 122 161 108 158 179 211 237 252 245 258
227 224 222 181 176 174 169 156 155 152 141 177 176 172 170 168 170 174 179 191 193 197 196 212 214 198 191 197 175 184 191 200 188 198 182 156 196 196 212 241 217 204 223 240
230 229 212 174 176 169 165 157 164 162 132 144 172 171 167 165 167 171 175 192 189 201 210 228 226 194 195 189 216 206 204 208 217 192 222 232 234 222 226 209 242 211 252 279
228 227 204 179 181 175 170 164 164 148 148 182 168 164 166 164 167 175 183 190 192 203 208 205 226 229 210 214 226 218 216 215 224 228 230 241 263 259 273 267 252 264 263 283
227 218 208 174 182 174 179 167 162 163 163 177 179 165 169 170 172 176 183 191 193 201 216 221 235 241 230 233 238 233 226 230 224 232 243 244 244 266 278 283 285 288 268 270
223 207 199 179 178 180 178 175 178 173 179 178 184 181 180 179 181 187 191 198 204 211 225 229 233 237 225 235 237 243 230 222 226 234 241 244 252 261 269 270 271 272 268 269
215 211 204 187 184 192 183 185 189 189 190 192 220 200 196 190 190 190 193 199 204 208 215 230 234 234 229 250 255 254 237 234 235 238 246 257 263 264 260 262 265 265 269 268
210 208 202 194 183 195 191 194 193 200 202 194 218 223 202 198 196 195 202 205 217 219 218 230 229 235 242 252 240 244 240 240 257 253 251 262 274 273 270 270 266 265 262 260
203 209 199 193 182 195 197 189 196 201 196 206 221 210 216 205 205 205 208 214 225 233 232 234 233 236 232 234 234 250 253 254 257 269 273 275 272 268 271 271 274 274 271 272
197 197 197 193 187 189 197 202 220 207 208 215 225 213 219 205 208 207 211 219 220 233 229 234 240 247 247 244 233 240 254 263 269 275 283 283 287 287 283 279 277 276 274 274
195 197 194 194 190 190 196 201 211 210 215 225 227 223 222 213 209 209 213 236 226 235 232 215 242 251 238 229 233 243 254 263 267 274 281 284 284 284 283 282 283 280 278 276
191 194 190 189 171 181 194 212 212 216 213 221 214 216 215 215 207 202 217 233 228 241 226 211 238 251 214 199 219 238 256 270 277 281 283 285 286 286 286 283 281 280 280 280
189 180 180 175 171 188 203 199 195 200 197 214 219 208 206 205 207 210 215 224 225 229 226 229 244 224 187 192 220 245 262 272 278 283 286 289 290 292 293 293 292 288 285 280
185 174 169 185 199 210 203 203 203 200 205 202 195 197 191 195 193 195 211 216 217 226 229 225 220 190 189 216 244 265 276 282 288 292 295 296 295 295 295 296 297 296 294 290
182 171 194 200 199 202 197 196 196 197 183 186 182 182 185 183 179 192 206 201 215 225 225 216 178 183 221 246 269 283 290 294 296 297 298 298 296 296 296 298 298 298 298 296
173 185 196 201 191 187 189 186 192 199 188 180 176 177 181 190 200 198 201 203 213 217 176 172 209 246 258 276 289 294 297 300 302 303 302 301 299 298 298 298 298 297 299 299
194 190 184 187 183 185 187 190 187 184 192 182 170 179 184 187 209 206 207 218 223 193 201 245 263 271 284 293 298 301 303 306 307 307 307 307 306 306 305 302 299 297 293 291
Height
2946 2959 2964 2975 2979 2988 2996 3000 3004 3005 3006 3009 3007 3008 3009 3010 3012 3014 3015 3016 3017 3017 3016 3014 3013 3014 3015 3015 3015 3013 3013 3013 3012 3012 3011 3012 3012 3013 3013 3012 3014 3015 3018 3022
2952 2956 2966 2974 2978 2989 2995 2998 3001 3002 3004 3005 3005 3006 3008 3010 3012 3013 3015 3016 3017 3018 3017 3017 3015 3015 3017 3017 3017 3017 3016 3016 3015 3016 3018 3016 3015 3016 3015 3015 3017 3022 3024 3025
2952 2958 2966 2974 2981 2989 2994 2998 2999 3001 3001 3003 3004 3005 3008 3010 3011 3012 3013 3015 3017 3018 3019 3018 3017 3017 3018 3018 3018 3018 3018 3018 3017 3019 3020 3019 3019 3019 3019 3018 3019 3024 3026 3026
2954 2959 2966 2971 2980 2989 2995 2996 2998 2999 2999 3000 3003 3005 3007 3009 3010 3012 3013 3015 3017 3019 3020 3019 3019 3017 3018 3019 3018 3018 3019 3018 3018 3018 3020 3020 3020 3019 3020 3020 3022 3026 3028 3027
2958 2966 2971 2973 2983 2990 2994 2997 2998 2998 2998 2999 3002 3004 3006 3009 3010 3012 3013 3016 3016 3018 3020 3021 3021 3020 3019 3019 3019 3019 3019 3019 3019 3019 3021 3022 3023 3022 3022 3022 3023 3025 3028 3029
2965 2968 2970 2975 2982 2991 2994 2996 2998 2999 2999 2999 3002 3004 3006 3008 3010 3012 3013 3016 3017 3019 3021 3021 3021 3020 3019 3018 3019 3020 3020 3020 3021 3023 3023 3024 3027 3026 3025 3025 3026 3028 3029 3032
2968 2969 2971 2977 2982 2990 2994 2996 2997 2998 2999 2999 3002 3003 3005 3008 3010 3011 3013 3016 3018 3020 3020 3022 3022 3021 3021 3020 3021 3021 3021 3021 3023 3024 3024 3026 3027 3025 3026 3027 3027 3029 3030 3031
2966 2967 2973 2977 2983 2989 2993 2996 2996 2998 2998 2999 3001 3002 3005 3007 3009 3011 3014 3016 3019 3020 3022 3023 3023 3024 3024 3023 3022 3022 3022 3023 3023 3023 3024 3028 3027 3027 3027 3027 3028 3029 3030 3031
2966 2969 2975 2979 2983 2989 2992 2995 2995 2997 2999 2999 3001 3002 3004 3006 3009 3011 3013 3016 3018 3020 3022 3024 3024 3024 3025 3024 3024 3023 3023 3023 3025 3025 3025 3029 3029 3028 3029 3029 3030 3029 3030 3032
2967 2971 2976 2980 2984 2989 2992 2994 2995 2997 2998 2999 3000 3002 3004 3005 3008 3011 3013 3015 3018 3020 3022 3023 3024 3024 3024 3025 3024 3024 3024 3025 3025 3025 3026 3029 3030 3028 3028 3031 3036 3030 3030 3030
2969 2971 2976 2980 2984 2989 2992 2994 2995 2997 2998 2999 3000 3002 3004 3006 3008 3011 3013 3016 3017 3019 3021 3022 3022 3022 3023 3024 3024 3025 3025 3024 3025 3025 3026 3029 3028 3029 3030 3031 3030 3030 3029 3029
2970 2972 2977 2982 2986 2989 2991 2993 2995 2998 3000 3000 3001 3002 3004 3005 3008 3011 3012 3015 3015 3017 3019 3020 3020 3021 3022 3023 3024 3025 3026 3026 3026 3028 3028 3027 3027 3027 3027 3027 3026 3026 3027 3027
2969 2972 2976 2984 2987 2989 2992 2993 2997 2999 2999 3001 3002 3002 3004 3005 3008 3010 3013 3014 3015 3017 3018 3019 3020 3020 3021 3022 3023 3023 3024 3024 3025 3027 3027 3026 3026 3027 3027 3027 3027 3027 3026 3026
2967 2971 2977 2984 2988 2989 2992 2994 2997 2999 3002 3003 3004 3003 3004 3006 3008 3010 3012 3014 3015 3016 3017 3018 3019 3020 3020 3021 3021 3022 3023 3023 3023 3024 3025 3025 3025 3025 3025 3026 3026 3027 3026 3026
2965 2971 2976 2983 2986 2989 2992 2993 2995 2999 3004 3004 3004 3005 3006 3006 3008 3009 3011 3013 3014 3015 3017 3018 3019 3019 3020 3019 3020 3019 3020 3021 3022 3022 3022 3023 3024 3024 3024 3024 3024 3023 3023 3022
2964 2969 2974 2979 2985 2988 2991 2993 2996 2999 3001 3005 3005 3006 3006 3006 3007 3009 3010 3012 3013 3014 3015 3016 3017 3017 3019 3017 3016 3017 3018 3019 3019 3020 3020 3020 3021 3021 3021 3021 3020 3020 3019 3018
2961 2966 2972 2977 2983 2987 2990 2994 2997 2998 3001 3004 3006 3005 3005 3006 3007 3008 3010 3011 3012 3013 3014 3014 3014 3015 3016 3014 3013 3014 3014 3016 3017 3017 3017 3018 3018 3017 3017 3017 3017 3017 3017 3017
2958 2962 2969 2976 2980 2986 2991 2993 2994 2997 3000 3003 3003 3002 3004 3005 3005 3007 3009 3010 3011 3012 3012 3013 3013 3013 3013 3011 3010 3011 3012 3012 3013 3014 3014 3014 3013 3012 3012 3013 3012 3012 3012 3011
2953 2958 2965 2972 2978 2984 2989 2991 2993 2994 2999 2999 2999 2999 3001 3002 3004 3005 3007 3008 3009 3010 3009 3010 3012 3010 3009 3009 3008 3009 3009 3010 3011 3011 3010 3010 3009 3009 3008 3007 3007 3007 3006 3005
2949 2955 2962 2968 2973 2981 2987 2990 2992 2992 2993 2994 2994 2996 2997 3001 3002 3003 3006 3006 3006 3005 3006 3006 3005 3003 3005 3006 3006 3006 3007 3007 3007 3008 3007 3007 3006 3005 3004 3002 3000 2999 2998 2997
2942 2949 2957 2963 2970 2978 2984 2987 2987 2987 2987 2987 2989 2993 2995 2997 3000 3002 3004 3002 3003 3002 3003 3003 3000 2998 3000 3001 3002 3003 3004 3004 3005 3005 3003 3002 3002 3000 2999 2996 2994 2992 2989 2988
2936 2946 2952 2961 2969 2977 2979 2978 2980 2977 2979 2977 2981 2986 2991 2994 2997 2999 3001 3001 3001 2998 2999 2999 2995 2995 2996 2998 3000 3001 3001 3001 3001 3000 2999 2998 2996 2993 2992 2990 2987 2984 2982 2980
2932 2938 2944 2951 2961 2964 2961 2958 2960 2963 2965 2969 2974 2979 2984 2989 2994 2997 2999 2997 2996 2996 2995 2992 2990 2991 2993 2996 2997 2998 2998 2998 2998 2996 2994 2992 2989 2986 2982 2979 2976 2974 2973 2970
2922 2927 2934 2944 2945 2941 2941 2947 2955 2960 2964 2966 2970 2975 2980 2985 2990 2993 2993 2993 2993 2990 2988 2986 2987 2988 2991 2993 2994 2995 2995 2994 2993 2990 2988 2985 2981 2977 2973 2970 2966 2963 2961 2958
2915 2923 2926 2925 2928 2933 2939 2945 2951 2956 2960 2965 2968 2974 2979 2982 2986 2987 2987 2987 2985 2982 2982 2983 2985 2988 2989 2990 2991 2990 2990 2988 2986 2984 2981 2977 2973 2968 2965 2961 2957 2954 2951 2948
2908 2912 2913 2916 2925 2930 2935 2940 2946 2952 2956 2961 2967 2972 2976 2978 2979 2979 2979 2979 2978 2978 2980 2982 2985 2986 2986 2986 2986 2985 2984 2982 2979 2976 2973 2969 2964 2959 2955 2952 2949 2945 2942 2940
2899 2903 2908 2913 2922 2929 2932 2938 2944 2948 2953 2957 2962 2966 2969 2971 2972 2972 2972 2973 2975 2976 2978 2980 2981 2982 2982 2981 2980 2979 2976 2974 2971 2968 2964 2960 2955 2951 2947 2943 2940 2937 2934 2932